Venez Explorer Les Airs Avec Nous!

Que ce soit pour un vol de découverte, pour apprendre l’arts du pilotage ou pour voyager, venez nous rejoindre.

Information en heures locale pour LFDL
23 September 2020

Metar
LFBI 231730Z AUTO 20011KT 9999 ///CB 18/17 Q1005 TEMPO 24015G25KT 4000 -SHRA

Lever du soleil : 07:49

Coucher du soleil : 19:54

Actualité

Nous sommes heureux d’accueillir un ULM Savannah au sein de notre flotte. Grace à cet appareil, vous pourrez découvrir une …

Bonjour tout le monde !

Bienvenue à tous, l’ Aéroclub Loudunais vous accueille sur son nouveau site internet.

Newsletter Sign Up

Praesent libero sed cursus anted dapibus diam